Location: *
(24.1434°N, 56.8729°E)
Time: 05:21:00
(UTC+00:00)

Cosmos 1943 Rocket - Pass Details

Date: 09 April 2020
Orbit: 811 x 845 km, 71.0° (Epoch: 05 June)

Event Time Altitude Azimuth Distance (km) Brightness Sun altitude
Rises 15:08:16 0° 343° (NNW) 3,357 5.8 -9.0°
Reaches altitude 10° 15:10:41 10° 344° (NNW) 2,427 5.0 -9.5°
Maximum altitude 15:16:16 84° 72° (ENE) 839 2.1 -10.7°
Drops below altitude 10° 15:21:53 10° 161° (SSE) 2,441 4.3 -12.0°
Sets 15:24:19 0° 162° (SSE) 3,377 5.0 -12.5°
